User: anonymous   Login
Location: Unspecified
(0.0000°N, 0.0000°E)
Time: 23:02:10
(UTC+00:00)
Language:

STARLINK-11179 [DTC] - Orbit

View from above orbital plane
View from above orbital plane
View from above satellite
View from above satellite

Ground track
Ground track

The orbit is defined by the following mean orbital elements,

1 60190U          26145.30346462 +.00000000 +00000-0 +73255-5 0 00002
2 60190  53.1588 143.8352 0001150  72.5720 287.5423 15.69703406    06
Epoch (UTC): 25 May 2026 07:16:59
Eccentricity: 0.0001150
inclination: 53.1588°
perigee height: 359 km
apogee height: 361 km
right ascension of ascending node: 143.8352°
argument of perigee: 72.5720°
revolutions per day: 15.69703406
mean anomaly at epoch: 287.5423°

The dashed part of the orbit path shows where the satellite is in the earth's shadow,  

DLR